Regional Weather Roundup
Issued by NWS

Home | Current Version | Previous Version | Text Only | Print | Product List | Glossary Off
Versions: 1 2 3 4 5 6 7 8 9 10 11 12 13 14 15 16 17 18 19 20 21 22 23 24 25 26 27 28 29 30 31 32 33 34 35 36 37 38 39 40 41 42 43 44 45 46 47 48 49 50

000
ASUS43 KDMX 190801
RWRIA

WEATHER ROUNDUP FOR IOWA
NATIONAL WEATHER SERVICE DES MOINES IA
300 AM CDT TUE SEP 19 2017

NOTE: "FAIR" INDICATES FEW OR NO CLOUDS BELOW 12,000 FEET WITH NO
SIGNIFICANT WEATHER AND/OR OBSTRUCTIONS TO VISIBILITY.

* - THESE STATIONS ARE NOT NWS STATIONS...THUS NOT UNDER NWS
QUALITY CONTROL.  THEY ALSO DO NOT REPORT WEATHER SUCH
AS PRECIPITATION OR FOG.

IAZ001>003-012>014-020>022-031>034-043>046-190900-
   NORTHWEST IOWA

CITY           SKY/WX    TMP DP  RH WIND       PRES   REMARKS
CARROLL *      CLOUDY    64  64 100 SE5       29.90S FOG
CHEROKEE *     CLOUDY    64  64 100 CALM      29.87F
DENISON *      CLOUDY    66  64  94 S14       29.90F FOG
LE MARS *      PTCLDY    63  63 100 SE3       29.85F
ORANGE CITY *  CLOUDY    66  66 100 S5        29.87F FOG
SHELDON *      MOCLDY    64  64 100 SE7       29.86F
SIOUX CITY     CLOUDY    64  64 100 SE9       29.84F
SPENCER        CLOUDY    65  64  97 S7        29.89F
STORM LAKE *   CLOUDY    64  63  94 SE7       29.90S FOG
$$

IAZ055>058-069>071-079>083-090>094-190900-
   SOUTHWEST IOWA

CITY           SKY/WX    TMP DP  RH WIND       PRES   REMARKS
ATLANTIC *     CLOUDY    66  64  94 S5        29.89F
AUDUBON *      PTCLDY    63  61  94 CALM      29.91F FOG
CLARINDA *     CLOUDY    66  66 100 CALM      29.91F
COUNCIL BLFS * CLOUDY    66  66 100 SE13      29.87F FOG
CRESTON *      MOCLDY    64 N/A N/A SE6       29.93F FOG
HARLAN  *      CLOUDY    66  66 100 S5G12     29.92F
LAMONI         CLOUDY    65  64  97 SW7       29.92F
RED OAK *      MOCLDY    66  66 100 S5        29.88F
SHENANDOAH *   CLOUDY    66  66 100 SE8       29.88F FOG
$$

IAZ047>049-059>061-072>074-084-190900-
   CENTRAL IOWA

CITY           SKY/WX    TMP DP  RH WIND       PRES   REMARKS
AMES           FOG       63  63 100 SE5       29.92F VSB 1/4
ANKENY *       FOG       63  63 100 SE5       29.93F VSB<1/4
BOONE *        FOG       63  63 100 CALM      29.92F VSB<1/4
CHARITON *     CLOUDY    63  63 100 S3        29.93F FOG
DES MOINES     FOG       64  64 100 SE8       29.92S VSB 1/8
GRINNELL*      FOG       59  58  97 CALM      29.94F VSB 1/2
KNOXVILLE *    FOG       63  63 100 S3        29.92S VSB<1/4
MARSHALLTOWN   FOG       57  57 100 CALM      29.93S VSB 1/2
NEWTON *       FOG       59  59 100 CALM      29.93F VSB<1/4
PELLA *        FOG       61  60  97 CALM      29.94S VSB 1/4
PERRY *        FOG       65  64  98 S3        29.92F VSB 1/2
$$

IAZ004>006-015-016-023>025-035-036-190900-
   NORTH CENTRAL IOWA

CITY           SKY/WX    TMP DP  RH WIND       PRES   REMARKS
ALGONA *       CLOUDY    64  64 100 S8        29.91F FOG
CLARION *      CLOUDY    63  63 100 S6        29.92F FOG
ESTHERVILLE    CLOUDY    63  63 100 S12       29.89F FOG
FORT DODGE *   CLOUDY    65  64  97 S6        29.92F FOG
MASON CITY     FOG       61  61 100 E3        29.94F VSB 1/4
FOREST CITY *  FOG       63  63 100 CALM      29.92F VSB 1/4
WEBSTER CITY * FOG       63  63 100 S5        29.90F VSB<1/4
IOWA FALLS *   FOG       60  60 100 CALM      29.94F VSB<1/4
$$

IAZ007>011-017>019-026>030-037>042-050>054-066-190900-
   NORTHEAST IOWA

CITY           SKY/WX    TMP DP  RH WIND       PRES   REMARKS
CEDAR RAPIDS   FOG       56  56 100 SE3       29.93F VSB 1/4
CHARLES CITY * PTCLDY    55  55 100 CALM      29.95S
CLINTON *      CLOUDY    61  60  97 E9        29.95S
DECORAH *      CLOUDY    59  57  94 CALM      29.95S
DUBUQUE        CLEAR     60  56  86 E5        29.96S
MONTICELLO *   CLEAR     59  57  94 CALM      29.94S FOG
OELWEIN *      CLEAR     55  55 100 NE5       29.95S
WATERLOO       CLEAR     54  54 100 CALM      29.93S
$$

IAZ064-065-067-068-078-190900-
   EAST CENTRAL IOWA

CITY           SKY/WX    TMP DP  RH WIND       PRES   REMARKS
DAVENPORT      MOCLDY    61  59  93 E6        29.96S
IOWA CITY      FOG       62  61  96 CALM      29.95S VSB 1/2
MUSCATINE *    FOG       63  63 100 CALM      29.94S VSB<1/4
QUAD CITIES    CLOUDY    66  63  90 E5        29.93S
$$

IAZ062-063-075>077-085>089-095>099-190900-
   SOUTHEAST IOWA

CITY           SKY/WX    TMP DP  RH WIND       PRES   REMARKS
BURLINGTON     FOG       62  62 100 NE3       29.93S VSB 1/2
FAIRFIELD *    FOG       61  61 100 E6        29.93S VSB<1/4
FORT MADISON * FOG       61  61 100 CALM      29.94F VSB 1/4
KEOKUK *       FOG       66  66 100 CALM      29.93S VSB<1/4
OSKALOOSA *    FOG       57  57  99 CALM      29.93F VSB 1/2
OTTUMWA        CLEAR     62  62 100 SE3       29.93S FOG
WASHINGTON *   FOG       61  59  94 CALM      29.94F VSB<1/4
$$

ABBREVIATIONS USED IN REMARKS
   TC - TEMPERATURES IN CELSIUS
  WCI - WIND CHILL INDEX
   HX - HEAT INDEX
  VSB - VISIBILITY
$$





USA.gov is the U.S. government's official web portal to all federal, state and local government web resources and services.